When you browse on this site, cookies collect data to enhance your experience and personalize the content and advertising you see.
Visit our Privacy Policy to learn more. By continuing to use the site, you agree to this use of cookies and data.
  • In Austria
  • List of Countries
  • For 7 days
  • Water Temperature
  • Satellite Maps
  • Weather Map
  • News
  • Weather Widgets
  • user-avatar
    Login

    Hourly Weather Makadi Bey

    Today, 19 November, Monday

    Time Temperature Precipitation Wind Pressure Humidity
    00:00 +19°C° 0 mm 1 mps 707 mmHg 30%
    01:00 +19°C° 0 mm 1 mps 707 mmHg 30%
    02:00 +18°C° 0 mm 1 mps 706 mmHg 29%
    03:00 +18°C° 0 mm 1 mps 706 mmHg 29%
    04:00 +16°C° 0 mm 1 mps 706 mmHg 29%
    05:00 +16°C° 0 mm 1 mps 706 mmHg 29%
    06:00 +18°C° 0 mm 1 mps 707 mmHg 26%
    07:00 +20°C° 0 mm 1 mps 707 mmHg 24%
    08:00 +20°C° 0 mm 2 mps 708 mmHg 21%
    09:00 +23°C° 0 mm 2 mps 708 mmHg 19%
    10:00 +24°C° 0 mm 2 mps 709 mmHg 17%
    11:00 +26°C° 0 mm 3 mps 709 mmHg 15%
    12:00 +26°C° 0 mm 3 mps 709 mmHg 14%
    13:00 +27°C° 0 mm 3 mps 709 mmHg 14%
    14:00 +27°C° 0 mm 3 mps 708 mmHg 13%
    15:00 +26°C° 0 mm 3 mps 708 mmHg 14%
    16:00 +25°C° 0 mm 3 mps 708 mmHg 16%
    17:00 +24°C° 0 mm 3 mps 708 mmHg 17%
    18:00 +22°C° 0 mm 3 mps 708 mmHg 19%
    19:00 +21°C° 0 mm 2 mps 708 mmHg 22%
    20:00 +20°C° 0 mm 2 mps 708 mmHg 24%
    21:00 +19°C° 0 mm 2 mps 708 mmHg 25%
    22:00 +19°C° 0 mm 2 mps 708 mmHg 26%
    23:00 +18°C° 0 mm 2 mps 708 mmHg 28%

    Tomorrow, 20 November, Tuesday

    Time Temperature Precipitation Wind Pressure Humidity
    00:00 +17°C° 0 mm 2 mps 708 mmHg 28%
    01:00 +17°C° 0 mm 2 mps 708 mmHg 29%
    02:00 +16°C° 0 mm 1 mps 708 mmHg 29%
    03:00 +16°C° 0 mm 1 mps 708 mmHg 29%
    04:00 +16°C° 0 mm 1 mps 708 mmHg 30%
    05:00 +15°C° 0 mm 1 mps 708 mmHg 30%
    06:00 +17°C° 0 mm 2 mps 709 mmHg 28%
    07:00 +19°C° 0 mm 2 mps 710 mmHg 25%
    08:00 +21°C° 0 mm 2 mps 710 mmHg 23%
    09:00 +23°C° 0 mm 2 mps 710 mmHg 22%
    10:00 +24°C° 0 mm 2 mps 711 mmHg 21%
    11:00 +26°C° 0 mm 3 mps 711 mmHg 20%
    12:00 +26°C° 0 mm 3 mps 711 mmHg 20%
    13:00 +27°C° 0 mm 3 mps 710 mmHg 20%
    14:00 +28°C° 0 mm 3 mps 710 mmHg 20%
    15:00 +26°C° 0 mm 3 mps 709 mmHg 24%
    16:00 +25°C° 0 mm 3 mps 709 mmHg 28%
    17:00 +24°C° 0 mm 3 mps 709 mmHg 32%
    18:00 +23°C° 0 mm 2 mps 709 mmHg 35%
    19:00 +21°C° 0 mm 2 mps 709 mmHg 39%
    20:00 +20°C° 0 mm 2 mps 709 mmHg 42%
    21:00 +20°C° 0 mm 2 mps 709 mmHg 42%
    22:00 +19°C° 0 mm 2 mps 709 mmHg 42%
    23:00 +19°C° 0 mm 2 mps 709 mmHg 42%

    Day after tomorrow, 21 November, Wednesday

    Time Temperature Precipitation Wind Pressure Humidity
    00:00 +18°C° 0 mm 2 mps 709 mmHg 40%
    01:00 +18°C° 0 mm 2 mps 709 mmHg 39%
    02:00 +19°C° 0 mm 1 mps 708 mmHg 37%
    03:00 +18°C° 0 mm 2 mps 708 mmHg 37%
    04:00 +17°C° 0 mm 2 mps 708 mmHg 36%
    05:00 +17°C° 0 mm 2 mps 707 mmHg 36%
    06:00 +19°C° 0 mm 2 mps 708 mmHg 33%
    07:00 +20°C° 0 mm 2 mps 709 mmHg 29%
    08:00 +23°C° 0 mm 1 mps 709 mmHg 26%
    09:00 +24°C° 0 mm 1 mps 709 mmHg 24%
    10:00 +26°C° 0 mm 1 mps 709 mmHg 23%
    11:00 +27°C° 0 mm 1 mps 709 mmHg 21%
    12:00 +27°C° 0 mm 2 mps 709 mmHg 21%
    13:00 +28°C° 0 mm 2 mps 708 mmHg 20%
    14:00 +28°C° 0 mm 2 mps 708 mmHg 20%
    15:00 +27°C° 0 mm 2 mps 708 mmHg 22%
    16:00 +26°C° 0 mm 2 mps 707 mmHg 25%
    17:00 +25°C° 0 mm 2 mps 707 mmHg 27%
    18:00 +24°C° 0 mm 2 mps 707 mmHg 30%
    19:00 +23°C° 0 mm 2 mps 708 mmHg 33%
    20:00 +21°C° 0 mm 2 mps 708 mmHg 36%
    21:00 +21°C° 0 mm 1 mps 708 mmHg 38%
    22:00 +21°C° 0 mm 1 mps 707 mmHg 40%
    23:00 +20°C° 0 mm 1 mps 707 mmHg 42%

    22 November, Thursday

    Time Temperature Precipitation Wind Pressure Humidity
    00:00 +20°C° 0 mm 1 mps 707 mmHg 42%
    01:00 +19°C° 0 mm 1 mps 706 mmHg 42%
    02:00 +19°C° 0 mm 1 mps 706 mmHg 42%
    03:00 +19°C° 0 mm 1 mps 706 mmHg 40%
    04:00 +19°C° 0 mm 1 mps 706 mmHg 39%
    05:00 +19°C° 0 mm 1 mps 706 mmHg 37%
    06:00 +20°C° 0 mm 2 mps 706 mmHg 33%
    07:00 +21°C° 0 mm 2 mps 707 mmHg 30%
    08:00 +23°C° 0 mm 2 mps 708 mmHg 26%
    09:00 +24°C° 0 mm 3 mps 708 mmHg 23%
    10:00 +25°C° 0 mm 4 mps 708 mmHg 19%
    11:00 +27°C° 0 mm 5 mps 708 mmHg 16%
    12:00 +27°C° 0.1 mm 4 mps 707 mmHg 18%
    13:00 +27°C° 0.1 mm 4 mps 707 mmHg 19%
    14:00 +27°C° 0.1 mm 3 mps 706 mmHg 21%
    15:00 +26°C° 0 mm 3 mps 706 mmHg 24%
    16:00 +25°C° 0 mm 2 mps 706 mmHg 26%
    17:00 +24°C° 0 mm 2 mps 706 mmHg 29%
    18:00 +23°C° 0 mm 2 mps 706 mmHg 32%
    19:00 +23°C° 0 mm 1 mps 707 mmHg 34%
    20:00 +22°C° 0 mm 1 mps 707 mmHg 37%
    21:00 +21°C° 0 mm 1 mps 707 mmHg 37%
    22:00 +21°C° 0 mm 1 mps 707 mmHg 37%
    23:00 +20°C° 0 mm 2 mps 706 mmHg 37%

    23 November, Friday

    Time Temperature Precipitation Wind Pressure Humidity
    00:00 +19°C° 0 mm 2 mps 706 mmHg 37%
    01:00 +19°C° 0 mm 2 mps 706 mmHg 36%
    02:00 +18°C° 0 mm 2 mps 706 mmHg 36%
    03:00 +18°C° 0 mm 2 mps 706 mmHg 36%
    04:00 +17°C° 0 mm 2 mps 706 mmHg 36%
    05:00 +17°C° 0 mm 2 mps 706 mmHg 36%
    06:00 +18°C° 0 mm 3 mps 706 mmHg 35%
    07:00 +18°C° 0 mm 3 mps 707 mmHg 35%
    08:00 +19°C° 0 mm 3 mps 708 mmHg 34%
    09:00 +20°C° 0 mm 4 mps 708 mmHg 32%
    10:00 +22°C° 0 mm 4 mps 708 mmHg 29%
    11:00 +23°C° 0 mm 5 mps 708 mmHg 27%
    12:00 +23°C° 0 mm 5 mps 708 mmHg 25%
    13:00 +23°C° 0 mm 5 mps 707 mmHg 24%
    14:00 +24°C° 0 mm 6 mps 707 mmHg 22%
    15:00 +23°C° 0 mm 5 mps 707 mmHg 25%
    16:00 +22°C° 0 mm 5 mps 707 mmHg 29%
    17:00 +21°C° 0 mm 5 mps 707 mmHg 32%
    18:00 +20°C° 0 mm 5 mps 707 mmHg 36%
    19:00 +19°C° 0 mm 4 mps 707 mmHg 41%
    20:00 +18°C° 0 mm 4 mps 708 mmHg 45%
    21:00 +18°C° 0 mm 3 mps 707 mmHg 48%
    22:00 +17°C° 0 mm 3 mps 707 mmHg 50%
    23:00 +16°C° 0 mm 2 mps 707 mmHg 53%

    24 November, Saturday

    Time Temperature Precipitation Wind Pressure Humidity
    00:00 +16°C° 0 mm 2 mps 707 mmHg 56%
    01:00 +15°C° 0 mm 2 mps 707 mmHg 58%
    02:00 +15°C° 0 mm 2 mps 706 mmHg 60%
    03:00 +15°C° 0 mm 2 mps 706 mmHg 63%
    04:00 +14°C° 0 mm 2 mps 706 mmHg 66%
    05:00 +14°C° 0 mm 2 mps 707 mmHg 69%
    06:00 +15°C° 0 mm 2 mps 707 mmHg 67%
    07:00 +14°C° 0 mm 3 mps 708 mmHg 65%
    08:00 +16°C° 0 mm 3 mps 708 mmHg 63%
    09:00 +17°C° 0 mm 3 mps 708 mmHg 55%
    10:00 +19°C° 0 mm 4 mps 708 mmHg 47%
    11:00 +20°C° 0 mm 5 mps 708 mmHg 38%
    12:00 +20°C° 0 mm 5 mps 708 mmHg 36%
    13:00 +21°C° 0 mm 6 mps 708 mmHg 33%
    14:00 +21°C° 0 mm 6 mps 707 mmHg 30%
    15:00 +20°C° 0 mm 6 mps 707 mmHg 33%
    16:00 +19°C° 0 mm 6 mps 707 mmHg 37%
    17:00 +17°C° 0 mm 6 mps 707 mmHg 40%
    18:00 +17°C° 0 mm 5 mps 707 mmHg 44%
    19:00 +16°C° 0 mm 5 mps 708 mmHg 47%
    20:00 +15°C° 0 mm 4 mps 708 mmHg 51%
    21:00 +15°C° 0 mm 4 mps 708 mmHg 52%
    22:00 +14°C° 0 mm 4 mps 708 mmHg 54%
    23:00 +13°C° 0 mm 3 mps 707 mmHg 55%
    Show more